OE-3002 Weather Reports


Display with metric or nautical units.
time (UTC)temp
F
wind
direction
speed
MPH
gust
MPH
rain 1hr
in
rain 24hr
in
rain mn
in
humidity
%
barometer
mb
20260903064102 61 139 2.0 5.0 0.00 0.00 0.00 94 1023.3
20260903061103 58 112 1.0 3.0 0.00 0.00 0.00 100 1023.6
20260903054102 58 167 2.0 4.0 0.00 0.00 0.00 100 1023.6
20260903051103 57 165 2.0 4.0 0.00 0.00 0.00 100 1023.6
20260903044102 58 141 1.0 2.0 0.00 0.00 0.00 100 1022.6
20260903041102 58 117 1.0 3.0 0.00 0.00 0.00 100 1022.5
20260903031103 59 148 2.0 4.0 0.00 0.00 0.00 100 1022.4
20260903021102 61 74 2.0 4.0 0.00 0.00 0.00 95 1022.3
20260903014102 62 21 2.0 4.0 0.00 0.00 0.00 94 1022.2
20260903011103 62 316 3.0 6.0 0.00 0.00 0.00 94 1022.2
20260903004103 61 114 2.0 4.0 0.00 0.00 0.00 96 1022.3
20260903001502 60 152 4.0 6.0 0.00 0.00 0.00 99 1022.4
20260902234102 60 152 2.0 5.0 0.00 0.00 0.00 99 1022.4
20260902224103 61 145 2.0 4.0 0.00 0.00 0.00 96 1022.3
20260902221103 61 163 3.0 5.0 0.00 0.00 0.00 97 1022.2
20260902214103 61 161 3.0 6.0 0.00 0.00 0.00 98 1022.2
20260902211103 62 162 2.0 6.0 0.00 0.00 0.00 95 1021.1
20260902204104 64 38 2.0 4.0 0.00 0.00 0.00 90 1021.0
20260902201103 64 145 2.0 6.0 0.00 0.00 0.00 90 1020.9
20260902194103 65 121 2.0 4.0 0.00 0.00 0.00 86 1020.8
20260902191103 66 353 1.0 3.0 0.00 0.00 0.00 84 1020.7
20260902184103 67 217 1.0 3.0 0.00 0.00 0.00 84 1020.7
20260902181103 69 359 1.0 3.0 0.00 0.00 0.00 75 1019.4
20260902174103 71 16 3.0 6.0 0.00 0.00 0.00 66 1019.2
20260902171103 74 345 3.0 5.0 0.00 0.00 0.00 58 1018.9
20260902164103 76 346 4.0 8.0 0.00 0.00 0.00 50 1018.7
20260902161103 77 333 3.0 9.0 0.00 0.00 0.00 48 1018.6
20260902154103 78 348 4.0 10.0 0.00 0.00 0.00 46 1018.6
20260902151103 78 319 5.0 10.0 0.00 0.00 0.00 46 1018.6
20260902144103 78 323 4.0 10.0 0.00 0.00 0.00 46 1019.6
20260902141103 78 317 3.0 10.0 0.00 0.00 0.00 45 1019.6
20260902134103 77 347 5.0 12.0 0.00 0.00 0.00 48 1019.7
20260902131103 76 325 5.0 11.0 0.00 0.00 0.00 48 1019.7
20260902124102 77 338 5.0 12.0 0.00 0.00 0.00 47 1019.7
20260902121103 76 315 4.0 8.0 0.00 0.00 0.00 48 1019.7
20260902114103 76 295 3.0 8.0 0.00 0.00 0.00 52 1019.8
20260902111103 75 2 4.0 8.0 0.00 0.00 0.00 51 1020.9
20260902104103 74 26 2.0 6.0 0.00 0.00 0.00 57 1021.0
20260902101103 72 332 2.0 7.0 0.00 0.00 0.00 62 1021.2
20260902094103 72 259 2.0 5.0 0.00 0.00 0.00 62 1021.2
20260902091102 70 255 2.0 5.0 0.00 0.00 0.00 65 1021.4
20260902084102 69 343 2.0 5.0 0.00 0.00 0.00 68 1021.5
20260902081102 68 133 2.0 7.0 0.00 0.00 0.00 69 1021.6
20260902074103 67 139 4.0 7.0 0.00 0.00 0.00 73 1021.7
20260902071303 64 135 4.0 6.0 0.00 0.00 0.00 81 1022.0